Location: *
(46.2697°N, 0.8731°W)
Time: 08:04:42
(UTC+00:00)

Daily predictions for brighter satellites

Satellite Brightness Start Highest point End
(mag) Time Altitude Azimuth Time Altitude Azimuth Time Altitude Azimuth
Cosmos 2315 Rocket 4.2 18:32:09 10° S 18:38:26 83° W 18:44:42 10° N
Envisat 4.0 18:33:34 10° S 18:38:31 53° W 18:43:31 10° NNW
GEOS 3 Rocket 3.6 18:35:21 10° SE 18:40:27 79° NE 18:45:36 10° NW
Aureole 1 Rocket 3.9 18:38:14 10° NNW 18:43:40 41° ENE 18:47:48 10° SE
Timation 2 Rocket 4.3 18:38:53 10° S 18:45:08 46° ESE 18:51:11 10° NE
Genesis I 4.0 18:41:48 10° NW 18:45:38 52° WSW 18:49:23 10° SSE
CSL-04 Rocket 4.2 18:40:42 10° S 18:46:09 66° WSW 18:51:42 10° NNW
SJ-6B 4.2 18:44:19 10° ESE 18:47:36 23° ENE 18:50:52 10° NNE
Nadezhda 1 Rocket 4.4 18:42:17 10° SSE 18:47:47 37° E 18:53:17 10° NNE
USA 116 4.2 18:45:28 10° N 18:49:41 66° WNW 18:53:22 10° SSW
Cosmos 1939 Rocket 2.7 18:46:02 10° SSE 18:49:52 67° ENE 18:53:42 10° N
Cosmos 1536 Rocket 3.6 18:45:40 10° N 18:49:57 59° ENE 18:54:13 10° SSE
Cosmos 2322 Rocket 3.9 18:48:06 10° NW 18:53:09 35° WSW 18:58:10 10° S
YAOGAN 1 3.7 18:52:18 10° S 18:56:28 48° W 19:00:41 10° NNW
Cosmos 1025 Rocket 3.0 18:52:29 10° N 18:56:44 58° ENE 19:00:56 10° SSE
Cosmos 1707 4.1 18:53:58 10° NNE 18:57:03 22° ENE 19:00:08 10° ESE
ASTEX 1 4.1 18:54:18 10° NNE 18:58:42 32° E 19:03:03 10° SSE
CZ-2C R/B 4.3 18:54:51 10° NNE 18:58:53 32° E 19:02:52 10° SSE
USA 32 4.1 18:55:16 10° N 19:00:32 89° E 19:05:47 10° S
Meteor 2-15 4.5 18:55:26 10° S 19:01:26 60° E 19:07:30 10° NNE
SL-16 R/B 4.2 18:59:14 10° N 19:01:52 13° NE 19:04:28 10° ENE
Cosmos 2333 4.2 18:56:35 10° NNW 19:02:16 74° ENE 19:07:57 10° SSE
Cosmos 389 Rocket 4.3 19:01:21 10° NNE 19:03:19 14° ENE 19:04:27 13° E
Cosmos 1378 3.2 19:02:18 10° N 19:06:04 83° W 19:09:49 10° S
Meteor 1-12 Rocket 4.3 19:01:30 10° S 19:07:07 58° E 19:12:41 10° NNE
COSMOS 2428 2.8 19:04:40 10° NNW 19:10:19 61° ENE 19:15:55 10° SE
Meteor 1-4 Rocket 4.3 19:11:40 10° NNE 19:13:48 15° ENE 19:14:27 14° E
Cosmos 2322 3.9 19:08:41 10° NNW 19:14:26 77° WSW 19:20:09 10° SSE
Cosmos 2219 Rocket 2.2 19:09:14 10° NNW 19:14:47 63° ENE 19:20:20 10° SE
CZ-2D R/B 4.1 19:11:11 10° S 19:14:52 52° W 19:18:37 10° NNW
Cosmos 2151 Rocket 3.8 19:11:25 10° SSW 19:15:49 75° W 19:20:14 10° N
Cosmos 1975 4.0 19:15:11 10° SSW 19:19:01 46° WNW 19:22:53 10° N
Lacrosse 4 Rocket 4.1 19:17:15 10° WNW 19:20:00 18° WSW 19:22:43 10° SSW
Ariane Rocket 3.5 19:15:43 10° S 19:20:42 62° WSW 19:25:46 10° NNW
Cosmos 2074 Rocket 4.2 19:16:35 10° NNW 19:22:50 76° W 19:29:02 10° S
Cosmos 1300 Rocket 4.2 19:19:34 10° SSW 19:23:50 59° WNW 19:28:07 10° N
Cosmos 2360 Rocket 3.6 19:20:01 10° NW 19:25:15 39° WSW 19:30:26 10° S
FREGAT/IRIS 2.6 19:25:18 10° S 19:28:06 73° W 19:30:55 10° NNW
Cosmos 407 Rocket 4.1 19:27:53 10° N 19:32:40 37° ENE 19:35:14 23° ESE
Cosmos 1842 4.4 19:29:58 10° NNW 19:33:45 45° W 19:37:31 10° SSW
SL-08 RB Rocket 4.5 19:31:35 21° ESE 19:33:53 34° ENE 19:38:06 10° N
Cosmos 2219 3.8 19:30:12 10° S 19:35:21 35° ESE 19:40:30 10° NE
NOSS 3-4 (A) 3.9 19:29:47 10° NW 19:36:42 65° NE 19:42:03 21° SE
NOSS 3-4 (C) 3.9 19:29:53 10° NW 19:36:48 65° NE 19:42:07 21° SE
SPOT 3 Rocket 3.5 19:32:55 10° SSE 19:38:03 75° ENE 19:43:13 10° NNW
Cosmos 2227 Rocket 3.3 19:38:55 21° E 19:38:55 21° E 19:42:35 10° NE
Cosmos 1461 2.7 19:35:16 10° SW 19:39:17 88° SE 19:43:16 10° NE
Cosmos 614 Rocket 4.5 19:36:29 10° N 19:41:28 41° ENE 19:43:50 26° ESE
Cosmos 2154 Rocket 4.0 19:36:46 10° N 19:43:00 87° W 19:49:13 10° S
Cosmos 1455 Rocket 4.0 19:44:43 27° E 19:44:46 27° E 19:48:31 10° NNE
NOSS 3-3 (A) 4.4 19:39:51 10° SW 19:45:47 66° NW 19:52:31 10° NE
NOSS 3-3 (C) 4.4 19:39:57 10° SW 19:45:54 66° NW 19:52:37 10° NE
SL-8 R/B 3.6 19:41:35 10° WSW 19:46:23 84° SSE 19:49:21 23° ENE
Cosmos 2297 Rocket 3.0 19:48:53 27° ESE 19:49:32 28° ESE 19:54:16 10° NE
Cosmos 405 Rocket 3.5 19:54:00 31° ENE 19:54:00 31° ENE 19:56:34 10° NNE
ARGOS 3.1 19:49:52 18° SSE 19:53:51 72° ENE 19:59:13 10° N
USA 186 2.7 19:51:57 13° S 19:54:49 51° W 19:58:11 10° NNW
Resurs 01 Rocket 1.9 19:55:58 37° ESE 19:57:09 46° ENE 20:01:25 10° N
Resurs 1-3 3.6 19:55:47 34° SE 19:57:31 60° ENE 20:01:51 10° N
Spot 2 Rocket 4.3 19:57:18 30° E 19:58:17 32° ENE 20:02:44 10° N
COSMOS 2455 4.1 19:53:16 10° NW 19:58:48 39° WSW 20:04:17 10° S
USA 234 4.5 19:55:03 10° ENE 20:00:51 35° N 20:06:38 10° WNW
SL-8 Rocket 4.0 19:55:25 10° N 20:01:32 57° ENE 20:04:44 28° SE
Cosmos 2333 Rocket 2.8 19:58:05 10° NW 20:03:39 56° WSW 20:08:28 14° S
Okean 1 Rocket 3.8 19:59:36 10° SSW 20:03:49 53° WNW 20:08:06 10° N
Cosmos 1140 Rocket 3.8 20:00:34 10° NNW 20:05:35 46° ENE 20:06:49 39° E
Meteor 2-5 Rocket 4.0 20:01:01 10° N 20:06:41 52° ENE 20:08:42 36° SE
Cosmos 1371 Rocket 4.0 20:02:36 10° S 20:07:46 57° ESE 20:13:01 10° NNE
H-2A R/B 2.0 20:06:40 21° S 20:09:58 80° WSW 20:15:00 10° NNW
SL-24 R/B 4.2 20:10:06 47° SE 20:11:10 62° ENE 20:15:54 10° N
ADEOS Rocket 3.4 20:09:25 10° NNE 20:16:40 80° ESE 20:24:24 10° SSW
Cosmos 1959 Rocket 4.4 20:10:44 10° N 20:16:47 61° ENE 20:19:02 39° SE
Terra 4.0 20:18:42 12° NE 20:18:42 12° NE 20:19:47 10° NNE
Cosmos 2237 Rocket 2.1 20:13:08 10° NNW 20:18:54 80° ENE 20:20:51 43° SE
ATLAS 2AS CENTAUR R/B 3.3 20:12:56 10° NW 20:20:25 58° WSW 20:24:53 23° S
MetOp-A 4.0 20:18:46 38° SSE 20:20:52 81° ENE 20:26:16 10° NNW
SJ-6B 4.4 20:18:28 11° SSW 20:22:04 35° W 20:25:52 10° NNW
Cosmos 676 Rocket 4.1 20:18:02 10° NNW 20:23:14 53° ENE 20:23:53 50° E
Meteor 2-17 Rocket 4.3 20:17:16 10° N 20:23:23 89° W 20:26:43 29° S
In-Cosmos 22 4.1 20:19:04 10° NNW 20:24:25 80° W 20:27:02 32° S
Cosmos 1980 3.6 20:21:48 10° NNW 20:27:30 83° WSW 20:29:22 44° SSE
Cosmos 1674 3.8 20:29:33 10° N 20:31:52 34° NNE 20:31:52 34° NNE
Okean 1-7 Rocket 4.1 20:32:30 10° NNW 20:36:51 55° W 20:38:08 40° SSW
Cosmos 389 Rocket 3.8 20:35:04 10° NNW 20:38:14 35° W 20:38:21 35° W
Cosmos 1892 Rocket 4.2 20:34:32 10° NNW 20:38:54 54° W 20:40:06 41° SW
Cosmos 1190 Rocket 4.1 20:35:18 10° NNW 20:40:36 70° WSW 20:41:48 52° S
CZ-2C R/B 3.3 20:45:09 44° SSW 20:46:39 65° WSW 20:52:04 10° NNW
SL-16 R/B 2.4 20:41:44 10° NNW 20:47:20 55° ENE 20:47:27 55° ENE
Meteor 1-4 Rocket 4.0 20:45:45 10° NNW 20:48:40 36° WNW 20:48:40 36° WNW
Cosmos 2219 Rocket 4.3 20:54:08 10° NW 20:58:14 21° W 21:02:07 11° SSW
DMSP B5D2-2 4.1 20:55:34 10° NNE 21:00:53 79° WNW 21:01:30 68° SW
Cosmos 2056 Rocket 4.1 21:01:45 10° SW 21:07:05 57° WNW 21:12:26 10° NNE
SPOT 1/Viking Rocket 4.1 21:09:52 48° NNE 21:09:52 48° NNE 21:13:50 10° N
SPOT 5 4.2 21:11:43 31° NNE 21:11:43 31° NNE 21:14:38 10° N
RESURS DK-1 4.5 21:11:29 10° NNW 21:13:13 21° N 21:13:13 21° N
CZ-2C R/B 3.0 21:10:14 10° NNE 21:14:46 61° NNE 21:14:46 61° NNE
USA 245 4.4 21:17:41 81° SW 21:17:54 83° WSW 21:23:59 10° NNW
Cosmos 2219 4.4 21:13:59 10° SW 21:19:25 42° NW 21:24:52 10° NNE
BREEZE-M DEB (TANK) 4.2 21:16:28 10° WNW 21:21:34 83° NNE 21:24:37 50° ESE
Cosmos 2227 Rocket 2.5 21:20:30 47° WSW 21:21:55 63° WNW 21:27:35 10° NNE
Nadezhda 3 Rocket 4.3 21:25:13 57° NNE 21:25:13 57° NNE 21:30:09 10° NNE
Cosmos 2297 Rocket 2.9 21:30:18 26° WSW 21:33:18 50° WNW 21:38:48 10° NNE
Resurs 01 Rocket 3.8 21:33:32 19° W 21:33:52 19° W 21:37:06 10° NW
ERS-1 Rocket 4.0 21:40:25 42° NNW 21:40:25 42° NNW 21:43:44 10° NNW
USA 234 3.9 21:42:11 44° NE 21:43:00 46° NNE 21:49:12 10° NW
Cosmos 1821 Rocket 4.2 21:38:31 10° N 21:43:45 64° NNW 21:43:45 64° NNW
Terra 3.7 21:57:36 26° N 21:57:36 26° N 21:59:42 10° NNW
Cosmos 2237 Rocket 4.4 21:58:45 10° WNW 22:02:13 17° W 22:02:42 16° WSW
SL-16 R/B 4.2 22:26:31 10° NW 22:29:20 22° WNW 22:29:20 22° WNW
CZ-4C R/B 4.0 23:07:02 10° NNW 23:12:50 36° NNE 23:12:50 36° NNE
Cosmos 2263 Rocket 4.4 23:39:46 21° N 23:39:46 21° N 23:41:41 10° NNE
